#timestamp,LO_Frequency,Hit,StdDev 
1659952815.7,286047004.4,P
1659952835.6,286047001.8,N
1659952855.4,286047002.5,N
1659952875.2,286047000.2,N
1659952895.1,286047000.8,N
1659952896.0,286047000.8,N
1659952915.8,286047000.7,N
1659952935.7,286046998.1,N
1659952955.5,286047001.2,N
1659952975.3,286047000.8,N
1659952995.2,286047000.9,N
1659953015.0,286046998.6,N
1659953015.9,286046998.6,N
1659953035.8,286047000.9,N
1659953055.6,286047000.4,N
1659953075.4,286047000.6,N
1659953095.3,286047000.8,N
1659953115.1,286046998.3,N
1659953135.8,286046998.2,N
1659953155.7,286046998.9,N
1659953175.5,286046999.0,N
1659953195.4,286046999.4,N
1659953215.2,286046998.2,N
1659953235.0,286047001.2,N
1659953235.9,286047001.2,N
1659953255.8,286046999.0,N
1659953275.6,286046999.0,N
1659953295.4,286046998.6,N
1659953315.3,286046999.6,N
1659953335.1,286046999.1,N
1659953355.9,286046999.1,N
1659953375.7,286046998.1,N
1659953395.5,286046998.3,N
1659953415.4,286047001.2,N
1659953435.2,286046998.1,N
1659953455.0,286046998.5,N
1659953456.0,286046998.5,N
1659953475.8,286046998.4,N
1659953495.6,286046999.0,N
1659953515.5,286046998.5,N
1659953535.3,286046998.2,N
1659953555.1,286046999.3,N
1659953575.9,286046996.5,Y
1659953595.7,286046999.1,P
1659953615.6,286046999.1,P
1659953635.4,286046999.1,P
1659953655.2,286046999.0,Y
1659953675.1,286047001.2,P
1659953676.0,286047001.2,N
1659953695.8,286047000.8,N
1659953715.7,286047001.0,N
1659953735.5,286046998.5,N
1659953755.3,286046998.5,N
1659953775.2,286046998.5,N
1659953795.0,286046998.6,N
1659953795.9,286046998.6,N
1659953815.7,286046998.7,N
1659953835.6,286046999.6,N
1659953855.4,286046998.9,N
1659953875.3,286046998.8,N
1659953895.1,286046999.2,N
1659953896.0,286046999.2,N
1659953915.8,286046998.6,N
1659953935.7,286046998.2,N
1659953955.5,286046998.3,N
1659953975.3,286046998.4,N
1659953995.2,286046998.5,N
1659954015.0,286046998.6,N
1659954015.9,286046998.6,N
1659954035.8,286046997.0,Y
1659954055.6,286046999.3,P
1659954075.4,286046999.2,P
1659954125.3,286047001.1,E
1659954135.2,286046996.6,N
1659954155.1,286046997.4,P
1659954156.0,286046997.4,P
1659954175.8,286046997.5,Y
1659954195.6,286047000.5,P
1659954215.5,286047000.9,N
1659954235.3,286046998.6,N
1659954255.2,286047002.3,N
1659954275.0,286047001.9,N
1659954275.9,286047001.9,N
1659954295.8,286047002.2,N
1659954315.6,286047001.5,N
1659954335.4,286047002.3,N
1659954355.3,286047002.8,N
1659954375.1,286047002.1,N
1659954395.9,286047002.6,N
1659954415.7,286047002.5,N
1659954435.5,286047000.1,N
1659954455.4,286047000.6,N
1659954475.2,286047000.8,N
1659954495.0,286047000.0,N
1659954495.9,286047000.0,N
1659954515.8,286047002.4,N
1659954535.6,286047000.5,N
1659954555.5,286047002.0,N
1659954575.3,286047002.3,N
1659954595.1,286047002.4,N
1659954615.9,286047002.6,N
1659954635.7,286047002.5,N
1659954655.5,286047001.6,N
1659954675.4,286047001.5,N
1659954695.2,286047001.8,N
1659954715.1,286047004.2,Y
1659954716.0,286047004.2,P
1659954735.8,286047002.3,N
1659954755.6,286047002.8,N
1659954775.5,286047000.1,N
1659954795.3,286047002.0,N
1659954815.1,286047002.1,N
1659954835.9,286047001.5,N
1659954855.7,286047004.4,Y
1659954875.6,286047000.3,P
1659954895.4,286047000.3,N
1659954915.2,286047000.2,N
1659954935.1,286046998.2,N
1659954936.0,286046998.2,N
1659954955.8,286047000.4,N
1659954975.6,286047000.9,N
1659954995.5,286047000.6,N
1659955015.3,286047000.7,N
1659955035.2,286047000.1,N
1659955055.9,286047001.2,N
1659955075.7,286047000.6,N
1659955095.6,286047000.9,N
1659955115.4,286046998.5,N
1659955135.3,286046998.3,N
1659955155.1,286046998.3,N
1659955156.0,286046998.3,N
1659955175.8,286046999.2,N
1659955195.7,286046998.5,N
1659955215.5,286046998.3,N
1659955235.3,286046998.2,N
1659955255.2,286046998.2,N
1659955275.0,286046998.8,N
1659955275.9,286046998.8,N
1659955295.8,286047001.2,N
1659955315.6,286047000.6,N
1659955335.4,286047000.0,N
1659955355.3,286046998.4,N
1659955375.1,286046998.5,N
1659955395.9,286047001.2,N
1659955415.7,286047001.2,N
1659955435.5,286046998.1,N
1659955455.4,286046998.1,N
1659955475.2,286046999.6,N
1659955495.0,286046998.8,N
1659955495.9,286046998.8,N
1659955515.8,286046999.4,N
1659955535.7,286046998.3,N
1659955555.6,286047001.1,N
1659955575.4,286047000.3,N
1659955595.2,286046999.8,N
1659955615.1,286047000.9,N
1659955616.0,286047000.9,N
1659955635.8,286047001.1,N
1659955655.6,286047001.2,N
1659955675.5,286046999.3,N
1659955695.3,286046998.6,N
1659955715.2,286046999.4,N
1659955735.9,286046999.0,N
1659955755.7,286046999.4,N
1659955775.6,286046998.6,N
1659955795.4,286046998.4,N
1659955815.3,286047001.1,N
1659955835.1,286046998.9,N
1659955836.0,286046998.9,N
1659955855.8,286046996.5,Y
1659955875.7,286046998.8,P
1659955895.5,286046999.5,N
1659955915.4,286046998.5,P
1659955935.2,286046999.0,N
1659955955.0,286046998.8,N
1659955955.9,286046998.8,Y
1659955975.8,286047001.2,P
1659955995.6,286046998.1,N
1659956015.4,286047000.1,N
1659956035.3,286046999.9,N
1659956055.1,286047001.1,N
1659956075.9,286047001.1,N
1659956095.7,286047000.7,N
1659956115.5,286047000.2,N
1659956135.4,286047000.9,N
1659956155.2,286047002.8,N
1659956175.0,286047002.4,N
1659956175.9,286047002.4,N
1659956195.8,286047002.1,N
1659956215.6,286046999.7,N
1659956235.5,286047001.6,N
1659956255.3,286047001.6,N
1659956275.1,286047002.5,N
1659956295.9,286046999.8,N
1659956315.7,286047000.1,N
1659956335.5,286046999.9,N
1659956355.4,286047002.3,N
1659956375.2,286046999.8,N
1659956395.1,286046999.8,N
1659956396.0,286046999.8,N
